Bloomington, IL

4:26 PM CDT on June 25, 2017 (GMT -0500)
Central Ill Regional

Weather History for KBMI - April, 2013

Change the Weather History Date:

Sunday, April 7, 2013

  Actual Average Record
Temperature  
Mean Temperature 58 °F -  
Max Temperature 70 °F 0 °F 82 °F (2001)
Min Temperature 45 °F - 20 °F (2007)
Degree Days  
Heating Degree Days 8    
Growing Degree Days 8 (Base 50)    
Moisture  
Dew Point 42 °F    
Average Humidity 61    
Maximum Humidity 89    
Minimum Humidity 33    
Precipitation  
Precipitation 0.00 in - - ()
Sea Level Pressure  
Sea Level Pressure 29.89 in    
Wind  
Wind Speed 9 mph (West)    
Max Wind Speed 13 mph    
Max Gust Speed -    
Visibility 9 miles    
Events      
Averages and records for this station are not official NWS values.
T = Trace of Precipitation, MM = Missing Value Source: NWS Daily Summary

Daily Weather History Graph

Daily Weather History Graph

Search for Another Location

Airport or City:

Trip Planner

Search our weather history database for the weather conditions in past years. The results will help you decide how hot, cold, wet, or windy it might be!

Date:

Astronomy

Apr. 07, 2013 Rise Set
Actual Time 6:29 AM CDT 7:26 PM CDT
Civil Twilight 6:01 AM CDT 7:54 PM CDT
Nautical Twilight 5:28 AM CDT 8:27 PM CDT
Astronomical Twilight 4:54 AM CDT 9:02 PM CDT
Moon 4:47 AM CDT (4/7) 4:58 PM CDT (4/7)
Length of Visible Light 13h 53m
Length of Day
12h 57m
Waning Crescent, 8% of the Moon is Illuminated
Apr 7
Waning Crescent
Apr 10
New
Apr 18
First Quarter
Apr 25
Full
May 2
Last Quarter

Hourly Weather History & Observations

Time (CDT) Temp. Windchill Dew Point Humidity Pressure Visibility Wind Dir Wind Speed Gust Speed Precip Events Conditions
12:56 AM 54.9 °F - 47.8 °F 77% 29.75 in 10.0 mi West 10.4 mph - N/A   Clear
1:56 AM 52.9 °F - 45.0 °F 74% 29.76 in 10.0 mi WSW 11.5 mph - N/A   Clear
2:56 AM 50.0 °F - 43.9 °F 79% 29.78 in 10.0 mi WSW 11.5 mph - N/A   Clear
3:56 AM 48.9 °F - 43.0 °F 80% 29.81 in 10.0 mi West 12.7 mph - N/A   Clear
4:56 AM 46.9 °F - 41.9 °F 83% 29.85 in 9.0 mi WSW 11.5 mph - N/A   Clear
5:56 AM 45.9 °F 40.4 °F 41.9 °F 86% 29.87 in 7.0 mi West 11.5 mph - N/A   Clear
6:56 AM 45.0 °F 41.2 °F 41.9 °F 89% 29.90 in 5.0 mi West 6.9 mph - N/A   Clear
7:56 AM 46.9 °F - 43.0 °F 86% 29.92 in 5.0 mi WNW 8.1 mph - N/A   Clear
8:56 AM 50.0 °F - 43.9 °F 79% 29.93 in 6.0 mi WNW 9.2 mph - N/A   Haze
9:56 AM 52.9 °F - 45.0 °F 74% 29.94 in 8.0 mi West 3.5 mph - N/A   Clear
10:56 AM 57.9 °F - 43.0 °F 58% 29.96 in 10.0 mi North 5.8 mph - N/A   Clear
11:56 AM 61.0 °F - 41.0 °F 48% 29.96 in 10.0 mi North 5.8 mph - N/A   Clear
12:56 PM 63.9 °F - 41.9 °F 45% 29.94 in 10.0 mi WNW 5.8 mph - N/A   Clear
1:56 PM 66.9 °F - 41.0 °F 39% 29.94 in 10.0 mi Variable 3.5 mph - N/A   Clear
2:56 PM 68.0 °F - 38.8 °F 34% 29.93 in 10.0 mi NW 5.8 mph - N/A   Partly Cloudy
3:56 PM 70.0 °F - 41.0 °F 35% 29.92 in 10.0 mi Variable 4.6 mph - N/A   Clear
4:56 PM 70.0 °F - 41.0 °F 35% 29.91 in 10.0 mi SSW 8.1 mph - N/A   Clear
5:56 PM 68.9 °F - 38.8 °F 33% 29.90 in 10.0 mi Calm Calm - N/A   Clear
6:56 PM 68.9 °F - 41.0 °F 36% 29.89 in 10.0 mi East 4.6 mph - N/A   Clear
7:56 PM 61.0 °F - 41.0 °F 48% 29.90 in 10.0 mi East 6.9 mph - N/A   Clear
8:56 PM 55.9 °F - 41.0 °F 57% 29.90 in 10.0 mi East 10.4 mph - N/A   Clear
9:56 PM 52.9 °F - 41.0 °F 64% 29.91 in 10.0 mi East 9.2 mph - N/A   Clear
10:56 PM 52.9 °F - 41.9 °F 66% 29.88 in 10.0 mi ESE 12.7 mph - N/A   Clear
11:56 PM 54.0 °F - 41.0 °F 62% 29.87 in 10.0 mi ESE 12.7 mph - N/A   Clear